Printer-friendly version

IAU Minor Planet Center

Minor Planet Center

MPEC 2003-F27 : 2000 FJ10

The following Minor Planet Electronic Circular may be linked-to from your own Web pages, but must not otherwise be redistributed electronically.


Read MPEC 2003-F26 Read MPEC 2003-F28


M.P.E.C. 2003-F27                                Issued 2003 Mar. 24, 12:43 UT

     The Minor Planet Electronic Circulars contain information on unusual
         minor planets and routine data on comets.  They are published
   on behalf of Commission 20 of the International Astronomical Union by the
          Minor Planet Center, Smithsonian Astrophysical Observatory,
                          Cambridge, MA 02138, U.S.A.

             Prepared using the Tamkin Foundation Computer Network

                              MPC@CFA.HARVARD.EDU
          URL http://cfa-www.harvard.edu/iau/mpc.html  ISSN 1523-6714

                                   2000 FJ10

                           Revision to MPEC 2000-G04

Additional Observations:
     K00F10J  C2003 03 23.30007 11 53 21.89 -02 16 49.4          19.9 V      691
     K00F10J  C2003 03 23.32630 11 53 19.28 -02 16 13.9          20.1 V      691
     K00F10J  C2003 03 23.35480 11 53 16.49 -02 15 36.5          20.2 V      691
     K00F10J  C2003 03 23.87804 11 52 29.80 -02 04 09.2          19.7 R      246
     K00F10J  C2003 03 23.87986 11 52 29.64 -02 04 06.3                      246
     K00F10J  C2003 03 23.88073 11 52 29.55 -02 04 04.4                      246
     K00F10J  C2003 03 23.88162 11 52 29.51 -02 04 03.8                      246
     K00F10J  C2003 03 23.88264 11 52 29.37 -02 04 03.2                      246
     K00F10J  C2003 03 23.88360 11 52 29.26 -02 04 00.2                      246
     K00F10J  C2003 03 23.93042 11 52 24.78 -02 02 59.3                      557
     K00F10J  C2003 03 23.93263 11 52 24.61 -02 02 57.1                      557
     K00F10J  C2003 03 23.93484 11 52 24.35 -02 02 54.3          20.2 V      557
     K00F10J  C2003 03 24.02005 11 52 16.22 -02 01 01.4          19.1 R      113
     K00F10J  C2003 03 24.02399 11 52 15.86 -02 00 56.2          19.3 R      113
     K00F10J  C2003 03 24.02793 11 52 15.48 -02 00 51.6          19.3 R      113
     K00F10J  C2003 03 24.05369 11 52 14.47 -01 59 50.7          19.1 R      809
     K00F10J  C2003 03 24.05554 11 52 14.30 -01 59 48.5          19.2 R      809
     K00F10J  C2003 03 24.05730 11 52 14.13 -01 59 46.0          19.3 R      809
     K00F10J  C2003 03 24.19643 11 52 01.18 -01 57 06.5          19.5 R      734
     K00F10J  C2003 03 24.21096 11 51 59.94 -01 56 49.1          19.6 R      734

Observer details:
113 Volkssternwarte Drebach, Schoenbrunn.  Observers A. Knofel, T. Payer,
    D. Koschny.  0.50-m f/4.0 reflector + CCD.
246 Klet Observatory-KLENOT.  Observers J. Ticha, M. Tichy.  1.06-m KLENOT
    Telescope + CCD.
557 Ondrejov.  Observer L. Sarounova.  0.65-m f/3.6 reflector + CCD.
691 Steward Observatory, Kitt Peak.  Observer J. A. Larsen.  0.9-m f/3
    reflector + CCD.
734 Farpoint Observatory.  Observer G. Hug.  0.30-m Schmidt-Cassegrain + CCD.
809 European Southern Observatory, La Silla.  Observers G. Masi, R. Michelsen,
    O. Hainaut.  1.54-m Danish Telescope + CCD.

First and last observations above in comparison with prediction:
Residuals in seconds of arc (or two decimals in degrees) and reference
030323 691 3.68- 1.17+    030324 734 3.66- 1.17+    MPC 40498

Orbital elements:
2000 FJ10
Epoch 2003 June 10.0 TT = JDT 2452800.5                 MPC
M 145.26566              (2000.0)            P               Q
n   0.65035501     Peri.  231.73431     +0.47239869     -0.88123593
a   1.3193774      Node   190.11383     +0.83474338     +0.45322731
e   0.2346200      Incl.    5.29593     +0.28291866     +0.13419476
P   1.52           H   21.4           G   0.15           U   5
Residuals in seconds of arc
000325 691  0.3-  0.3-    000402 691  0.4-  0.3-    030323 246  0.1+  0.3-
000325 691  0.7-  0.2-    000402 691 (2.4+  1.6-)   030323 246  0.0   0.5+
000325 691  0.5-  0.9-    000403 691  0.3-  0.4-    030323 246  0.7+  0.1-
000326 691  0.3+  1.0-    000403 691  0.4-  0.6-    030323 246  0.0   0.9-
000326 691  0.5+  0.8+    000403 691  0.2-  0.5-    030323 246  0.3-  0.9+
000326 691  0.7+  0.9-    000405 704  0.9+  1.0+    030323 557  0.1-  0.4+
000327 691  0.4-  0.1+    000405 704  0.8-  0.4+    030323 557  0.6+  0.4-
000327 691  0.2+  1.4+    000405 704  0.4+  1.5+    030323 557  0.2-  0.5-
000327 691  0.1-  1.0+    000405 704  0.3+  0.8+    030324 113  0.4-  0.4+
000329 691  0.1+  0.0     000408 691  0.1-  1.3-    030324 113  0.2-  0.4+
000329 691  0.0   0.2-    000408 691  0.0   0.7-    030324 113  0.3-  0.2-
000329 691  0.2+  0.2-    000408 691  0.3+  1.2-    030324 809  0.4-  0.3+
000401 691  0.6+  0.1+    030323 691  0.6+  0.5-    030324 809  0.4-  0.1+
000401 691  0.4+  0.1+    030323 691  0.3+  0.1+    030324 809  0.4-  0.3+
000401 691  0.7-  1.7+    030323 691  0.6+  0.4-    030324 734  0.1-  0.6+
000402 691  0.1+  0.0     030323 246  0.1-  0.8-    030324 734 (2.2+  1.1-)

Ephemeris:
2000 FJ10                a,e,i = 1.32, 0.23, 5                   q = 1.0098
Date    TT    R. A. (2000) Decl.     Delta      r     Elong.  Phase     V
2003 03 22    11 55.37   -02 45.7    0.410    1.405   176.9     2.2    20.5
2003 04 01    11 41.56   +00 41.6    0.448    1.436   164.6    10.6    21.1
2003 04 11    11 32.58   +03 18.5    0.504    1.465   151.7    18.9    21.7
2003 04 21    11 29.03   +04 57.9    0.573    1.492   140.5    25.4    22.2

Brian G. Marsden             (C) Copyright 2003 MPC           M.P.E.C. 2003-F27

Read MPEC 2003-F26 Read MPEC 2003-F28


Our Web policy. Index to the CBAT/MPC/ICQ pages.


Valid HTML 4.01!